Volver al catálogo

THOR ABLESTAR DEB

ActivoLEO
NORAD 1942·DEBRIS·🇺🇸 United States

Lanzado Jun 29, 1961 desde Cape Canaveral Space Force Station

Loading…

Próximos Pases (próximas 24 horas)

TLE

ActualizadoSource: Space-Track

Época: Sep 14, 2026, 11:55 UTC

1 01942U 61015HS  26257.49686725  .00000200  00000-0  53022-3 0  9995
2 01942  67.2658 172.5418 0341438 188.4464 349.5295 13.13455736128543

Sigue THOR ABLESTAR DEB en tiempo real con AllMySat

Download on the App Store